This is the latest recevied weather packets stored in our database for station/object EB5AGF-13. If no packets are shown the sender has not sent any weather packets the latest 10 day(s).
| Time | Temp. | Humidity | Pressure | Rain* | Wind** | Luminosity | Snow |
|---|---|---|---|---|---|---|---|
| 1777556612 | 21.11° C | 72% | 1012.4 hPa | 0 mm | 2.68 m/s, 166° | 547 W/m² | - |
| 1777556312 | 21.67° C | 73% | 1012.8 hPa | 0 mm | 2.68 m/s, 200° | 570 W/m² | - |
| 1777556012 | 21.67° C | 73% | 1012.8 hPa | 0 mm | 0.89 m/s, 184° | 588 W/m² | - |
| 1777555712 | 21.67° C | 73% | 1012.9 hPa | 0 mm | 3.58 m/s, 194° | 582 W/m² | - |
| 1777555413 | 21.67° C | 74% | 1012.7 hPa | 0 mm | 2.24 m/s, 219° | 571 W/m² | - |
| 1777555113 | 21.67° C | 77% | 1012.8 hPa | 0 mm | 1.34 m/s, 245° | 478 W/m² | - |
| 1777554812 | 21.11° C | 75% | 1013 hPa | 0 mm | 0.89 m/s, 234° | 601 W/m² | - |
| 1777554509 | 21.67° C | 74% | 1012.8 hPa | 0 mm | 2.24 m/s, 130° | 507 W/m² | - |
| 1777554205 | 21.67° C | 75% | 1012.8 hPa | 0 mm | 1.79 m/s, 322° | 615 W/m² | - |
| 1777553903 | 21.67° C | 74% | 1012.7 hPa | 0 mm | 1.79 m/s, 188° | 611 W/m² | - |
| 1777553597 | 21.67° C | 74% | 1012.8 hPa | 0 mm | 4.92 m/s, 187° | 618 W/m² | - |
| 1777553293 | 22.22° C | 72% | 1012.9 hPa | 0 mm | 3.13 m/s, 161° | 622 W/m² | - |
| 1777552989 | 22.22° C | 73% | 1013 hPa | 0 mm | 3.13 m/s, 194° | 622 W/m² | - |
| 1777552688 | 21.67° C | 74% | 1013 hPa | 0 mm | 2.68 m/s, 194° | 627 W/m² | - |
| 1777552381 | 21.67° C | 74% | 1012.8 hPa | 0 mm | 2.68 m/s, 210° | 628 W/m² | - |
| 1777552078 | 21.11° C | 76% | 1012.7 hPa | 0 mm | 2.24 m/s, 97° | 628 W/m² | - |
| 1777551773 | 21.67° C | 73% | 1012.8 hPa | 0 mm | 1.34 m/s, 174° | 608 W/m² | - |
| 1777551471 | 21.67° C | 74% | 1012.9 hPa | 0 mm | 1.79 m/s, 192° | 633 W/m² | - |
| 1777551165 | 21.67° C | 74% | 1012.9 hPa | 0 mm | 1.79 m/s, 213° | 640 W/m² | - |
| 1777550861 | 22.22° C | 71% | 1013 hPa | 0 mm | 3.13 m/s, 230° | 636 W/m² | - |
| 1777550558 | 21.67° C | 72% | 1012.8 hPa | 0 mm | 3.58 m/s, 220° | 640 W/m² | - |
| 1777550253 | 21.11° C | 73% | 1012.8 hPa | 0 mm | 2.24 m/s, 148° | 625 W/m² | - |
| 1777549953 | 21.11° C | 74% | 1012.9 hPa | 0 mm | 2.24 m/s, 159° | 621 W/m² | - |
| 1777549653 | 21.67° C | 73% | 1013.3 hPa | 0 mm | 1.79 m/s, 174° | 628 W/m² | - |
| 1777549353 | 22.22° C | 71% | 1012.9 hPa | 0 mm | 1.34 m/s, 232° | 627 W/m² | - |
* Rain latest hour (hover to see other rain measurements)
** Current wind speed in m/s (hover to see current wind gust speed)